Falfurrias, TX

7:21 AM CST on February 26, 2017 (GMT -0600)
Falfurrias

Weather History for KBKS - December, 2012

Change the Weather History Date:

Friday, December 28, 2012

  Actual Average (KNQI) Record (KNQI)
Temperature  
Mean Temperature 64 °F -  
Max Temperature 75 °F 66 °F 84 °F (2016)
Min Temperature 53 °F 44 °F 28 °F (1997)
Degree Days  
Heating Degree Days 1    
Growing Degree Days 14 (Base 50)    
Moisture  
Dew Point 43 °F    
Average Humidity 53    
Maximum Humidity 91    
Minimum Humidity 22    
Precipitation  
Precipitation 0.00 in - - ()
Sea Level Pressure  
Sea Level Pressure 29.91 in    
Wind  
Wind Speed 5 mph (North)    
Max Wind Speed 16 mph    
Max Gust Speed 24 mph    
Visibility 10 miles    
Events      
Averages and records for this station are not official NWS values.
T = Trace of Precipitation, MM = Missing Value Source: NWS Daily Summary

Daily Weather History Graph

Daily Weather History Graph

Search for Another Location

Airport or City:

Trip Planner

Search our weather history database for the weather conditions in past years. The results will help you decide how hot, cold, wet, or windy it might be!

Date:

Astronomy

Dec. 28, 2012 Rise Set
Actual Time 7:21 AM CST 5:47 PM CST
Civil Twilight 6:55 AM CST 6:13 PM CST
Nautical Twilight 6:26 AM CST 6:42 PM CST
Astronomical Twilight 5:58 AM CST 7:10 PM CST
Moon 6:20 PM CST (12/28) 7:20 AM CST (12/28)
Length of Visible Light 11h 17m
Length of Day
10h 26m
Full, 100% of the Moon is Illuminated
Dec 28
Full
Jan 4
Last Quarter
Jan 11
New
Jan 18
First Quarter
Jan 26
Full

Hourly Weather History & Observations

Time (CST) Temp. Dew Point Humidity Pressure Visibility Wind Dir Wind Speed Gust Speed Precip Events Conditions
12:15 AM 57.9 °F 52.5 °F 82% 29.80 in 10.0 mi Calm Calm - N/A   Overcast
12:35 AM 56.5 °F 51.8 °F 84% 29.80 in 10.0 mi Calm Calm - N/A   Mostly Cloudy
12:55 AM 55.9 °F 51.8 °F 86% 29.78 in 10.0 mi ESE 3.5 mph - N/A   Scattered Clouds
1:35 AM 55.6 °F 51.8 °F 87% 29.78 in 10.0 mi Calm Calm - N/A   Clear
1:55 AM 55.4 °F 51.3 °F 86% 29.78 in 10.0 mi Calm Calm - N/A   Clear
2:15 AM 55.0 °F 51.3 °F 87% 29.78 in 10.0 mi WNW 3.5 mph - N/A   Clear
2:35 AM 54.9 °F 51.3 °F 88% 29.77 in 10.0 mi Calm Calm - N/A   Clear
2:55 AM 54.1 °F 51.1 °F 89% 29.77 in 10.0 mi Calm Calm - N/A   Clear
3:15 AM 53.6 °F 50.9 °F 91% 29.77 in 10.0 mi Calm Calm - N/A   Clear
3:35 AM 54.5 °F 51.1 °F 88% 29.78 in 10.0 mi North 3.5 mph - N/A   Scattered Clouds
4:15 AM 56.7 °F 52.0 °F 84% 29.78 in 10.0 mi North 4.6 mph - N/A   Overcast
4:55 AM 57.2 °F 52.0 °F 83% 29.78 in 10.0 mi NNW 4.6 mph - N/A   Overcast
5:15 AM 57.2 °F 51.8 °F 82% 29.78 in 10.0 mi Calm Calm - N/A   Mostly Cloudy
5:35 AM 57.6 °F 52.0 °F 82% 29.78 in 10.0 mi NNW 4.6 mph - N/A   Overcast
5:55 AM 58.1 °F 52.5 °F 82% 29.78 in 10.0 mi NNW 5.8 mph - N/A   Overcast
6:15 AM 58.6 °F 52.7 °F 81% 29.79 in 10.0 mi North 4.6 mph - N/A   Overcast
6:35 AM 59.0 °F 53.1 °F 81% 29.79 in 10.0 mi Calm Calm - N/A   Overcast
6:55 AM 59.2 °F 53.4 °F 81% 29.80 in 10.0 mi NNW 3.5 mph - N/A   Overcast
7:15 AM 59.0 °F 54.9 °F 86% 29.81 in 7.0 mi NNW 3.5 mph - N/A   Overcast
7:35 AM 58.5 °F 55.4 °F 90% 29.82 in 5.0 mi North 3.5 mph - N/A   Overcast
8:15 AM 58.6 °F 55.8 °F 90% 29.86 in 4.0 mi NNW 9.2 mph - N/A   Overcast
8:35 AM 58.1 °F 54.9 °F 89% 29.88 in 4.0 mi NNW 9.2 mph - N/A   Overcast
9:35 AM 60.6 °F 54.7 °F 81% 29.91 in 10.0 mi NW 10.4 mph 16.1 mph N/A   Overcast
9:55 AM 61.9 °F 51.8 °F 69% 29.92 in 10.0 mi NNW 11.5 mph 16.1 mph N/A   Scattered Clouds
10:15 AM 62.6 °F 50.0 °F 63% 29.93 in 10.0 mi NNW 10.4 mph - N/A   Clear
10:35 AM 63.3 °F 49.5 °F 61% 29.93 in 10.0 mi NNW 12.7 mph 16.1 mph N/A   Clear
10:55 AM 64.4 °F 48.6 °F 56% 29.94 in 10.0 mi NNW 11.5 mph - N/A   Clear
11:15 AM 64.4 °F 47.5 °F 54% 29.95 in 10.0 mi NNW 12.7 mph 20.7 mph N/A   Clear
11:35 AM 64.8 °F 46.8 °F 52% 29.95 in 10.0 mi NNW 9.2 mph 18.4 mph N/A   Clear
11:55 AM 64.8 °F 45.9 °F 50% 29.95 in 10.0 mi NNW 13.8 mph 18.4 mph N/A   Clear
12:15 PM 66.7 °F 44.8 °F 45% 29.93 in 10.0 mi NNW 11.5 mph 17.3 mph N/A   Clear
12:35 PM 66.9 °F 43.3 °F 42% 29.92 in 10.0 mi NW 8.1 mph 11.5 mph N/A   Clear
12:55 PM 68.7 °F 39.9 °F 35% 29.91 in 10.0 mi NNW 15.0 mph 20.7 mph N/A   Clear
1:15 PM 70.7 °F 39.6 °F 32% 29.91 in 10.0 mi North 11.5 mph 18.4 mph N/A   Clear
1:35 PM 71.1 °F 39.7 °F 32% 29.90 in 10.0 mi North 12.7 mph 20.7 mph N/A   Clear
1:55 PM 70.7 °F 40.1 °F 33% 29.89 in 10.0 mi NNW 12.7 mph 17.3 mph N/A   Clear
2:15 PM 72.9 °F 37.8 °F 28% 29.88 in 10.0 mi NNW 15.0 mph 20.7 mph N/A   Clear
2:35 PM 72.9 °F 39.2 °F 30% 29.88 in 10.0 mi NNW 12.7 mph 18.4 mph N/A   Clear
2:55 PM 73.8 °F 39.4 °F 29% 29.88 in 10.0 mi NNW 9.2 mph - N/A   Clear
3:15 PM 75.2 °F 36.0 °F 24% 29.88 in 10.0 mi NNW 13.8 mph 21.9 mph N/A   Clear
3:35 PM 75.6 °F 33.6 °F 22% 29.88 in 10.0 mi NNW 16.1 mph 24.2 mph N/A   Clear
3:55 PM 74.7 °F 34.0 °F 23% 29.89 in 10.0 mi NNW 16.1 mph 24.2 mph N/A   Clear
4:15 PM 74.3 °F 34.7 °F 24% 29.90 in 10.0 mi NNW 15.0 mph 21.9 mph N/A   Clear
4:35 PM 73.8 °F 33.1 °F 23% 29.91 in 10.0 mi NNW 16.1 mph 20.7 mph N/A   Clear
4:55 PM 72.9 °F 33.8 °F 24% 29.92 in 10.0 mi NNW 9.2 mph 18.4 mph N/A   Clear
5:15 PM 72.5 °F 34.2 °F 25% 29.93 in 10.0 mi North 4.6 mph - N/A   Clear
5:35 PM 71.6 °F 34.7 °F 26% 29.93 in 10.0 mi North 3.5 mph - N/A   Clear
5:55 PM 70.0 °F 34.2 °F 27% 29.94 in 10.0 mi North 3.5 mph - N/A   Clear
6:15 PM 69.1 °F 32.2 °F 25% 29.95 in 10.0 mi NNW 3.5 mph - N/A   Clear
6:35 PM 67.1 °F 32.7 °F 28% 29.96 in 10.0 mi Calm Calm - N/A   Clear
6:55 PM 63.7 °F 33.8 °F 33% 29.97 in 10.0 mi WNW 3.5 mph - N/A   Clear
7:15 PM 62.8 °F 33.4 °F 33% 29.98 in 10.0 mi NW 5.8 mph - N/A   Clear
7:35 PM 65.3 °F 32.4 °F 29% 30.00 in 10.0 mi Calm Calm - N/A   Clear
7:55 PM 63.7 °F 32.0 °F 31% 30.01 in 10.0 mi Calm Calm - N/A   Clear
8:15 PM 61.3 °F 32.0 °F 33% 30.02 in 10.0 mi Calm Calm - N/A   Clear
8:35 PM 62.2 °F 30.0 °F 30% 30.05 in 10.0 mi NNE 9.2 mph 18.4 mph N/A   Clear
8:55 PM 62.6 °F 30.7 °F 30% 30.06 in 10.0 mi NNE 6.9 mph - N/A   Clear
9:15 PM 61.7 °F 34.5 °F 36% 30.08 in 10.0 mi NNE 5.8 mph - N/A   Clear
9:35 PM 61.2 °F 35.8 °F 39% 30.09 in 10.0 mi NE 8.1 mph - N/A   Clear
10:15 PM 60.8 °F 30.4 °F 32% 30.12 in 10.0 mi NE 8.1 mph - N/A   Clear
10:35 PM 58.6 °F 30.0 °F 34% 30.13 in 10.0 mi ENE 4.6 mph - N/A   Clear
10:55 PM 56.3 °F 32.9 °F 41% 30.15 in 10.0 mi NE 11.5 mph - N/A   Clear
11:15 PM 58.1 °F 30.7 °F 35% 30.16 in 10.0 mi NE 9.2 mph - N/A   Clear
11:35 PM 57.2 °F 30.7 °F 37% 30.17 in 10.0 mi NE 10.4 mph - N/A   Clear
11:55 PM 56.3 °F 29.8 °F 36% 30.18 in 10.0 mi NNE 12.7 mph 21.9 mph N/A   Clear